Weather in Biaza

Russia / Novosibirsk Oblast     56°35′45″N   78°17′55″E
temp.,
°C
wind,
m/s
gust,
m/s
humid.,
%
clouds,
%
prec.,
mm/h
press.,
hPa
HPBL,
m
27 november, sat
sat2701:00−16ssw41395100 0.0 1028328
04:00−14ssw41295100 0.0 1028372
07:00−13ssw51294100 0.1 1028419
10:00−11ssw51294100 0.3 1027454
13:00−8ssw61591100 0.8 1025625
16:00−8sw61491100 0.1 1023670
19:00−6sw61692100 0.5 1022721
22:00−5wsw61593100 0.4 1021807
28 november, sun
sun2801:00−4wsw61493100 1.1 1022735
04:00−4wsw5139497 0.3 1023683
07:00−3wsw51191100 0.4 1024686
10:00−5wsw51093100 0.1 1026624
13:00−5wsw51193100 0.1 1028523
16:00−5wsw4109395 0.1 1029479
19:00−8sw389794 0.1 1031228
22:00−11sw389895 0.0 1032155
29 november, mon
mon2901:00−11sw3897100 0.0 1032137
04:00−11ssw399676 0.0 1032165
07:00−12sw3119394 0.0 1031193
10:00−11ssw41184100 0.0 1030238
13:00−8ssw41283100 0.0 1029317
16:00−7ssw41284100 0.0 1028342
19:00−8ssw41282100 0.0 1027318
22:00−8ssw41381100 0.0 1026301
30 november, tue
tue3001:00−9sw4128260 0.0 1025270
04:00−10sw4128210 0.0 1024235
07:00−10sw41184100 0.0 1023220
10:00−8sw31083100 0.0 1023236
13:00−5sw41187100 0.0 1023274
16:00−3sw4118967 0.0 1024369
19:00−4sw399397 0.0 1025247
22:00−7sw259777 0.0 102680
1 december, wed
wed101:00−5ssw2597100 0.0 1026136
04:00−6ssw369673 0.0 1026137
07:00−12s378982 0.0 1025118
10:00−12s31189100 0.0 1025204
13:00−9s41287100 0.0 1024276
16:00−9ssw41381100 0.0 1021304
19:00−10ssw41388100 0.0 1021267
22:00−10ssw4139063 0.0 1019239